User: anonymous   Login
Location: Unspecified
(0.0000°N, 0.0000°E)
Time: 20:01:19
(UTC+00:00)
Language:

Kitsat-3 - Orbit

View from above orbital plane
View from above orbital plane
View from above satellite
View from above satellite

Ground track
Ground track

The orbit data is extracted from the following two-line orbital elements,

1 25756U 99029A   17144.80567757 +.00000019 +00000-0 +15765-4 0  9994
2 25756 098.4125 064.3246 0012936 316.9222 043.0960 14.53666517954001
Epoch (UTC): 24 May 2017 19:20:10
Eccentricity: 0.0012936
inclination: 98.4125°
perigee height: 704 km
apogee height: 723 km
right ascension of ascending node: 64.3246°
argument of perigee: 316.9222°
revolutions per day: 14.53666517
mean anomaly at epoch: 43.0960°
orbit number at epoch: 95400

The dashed part of the orbit path shows where the satellite is in the earth's shadow,  

DLR